Printer-friendly version

IAU Minor Planet Center

Minor Planet Center

MPEC 2002-H11 : 2002 GB10

The following Minor Planet Electronic Circular may be linked-to from your own Web pages, but must not otherwise be redistributed electronically.


Read MPEC 2002-H10 Read MPEC 2002-H12


M.P.E.C. 2002-H11                                Issued 2002 Apr. 17, 15:30 UT

     The Minor Planet Electronic Circulars contain information on unusual
         minor planets and routine data on comets.  They are published
   on behalf of Commission 20 of the International Astronomical Union by the
          Minor Planet Center, Smithsonian Astrophysical Observatory,
                          Cambridge, MA 02138, U.S.A.

             Prepared using the Tamkin Foundation Computer Network

                              MPC@CFA.HARVARD.EDU
          URL http://cfa-www.harvard.edu/iau/mpc.html  ISSN 1523-6714

                                   2002 GB10

Observations:
     K02G10B* C2002 04 08.30202 12 08 16.09 -13 19 07.9          19.5        644
     K02G10B  C2002 04 08.32302 12 08 15.85 -13 19 06.6          19.7        644
     K02G10B  C2002 04 08.36136 12 08 15.43 -13 19 04.0          19.6        644
     K02G10B  C2002 04 08.90336 12 08 09.72 -13 18 27.0                      246
     K02G10B  C2002 04 08.90463 12 08 09.69 -13 18 27.4                      246
     K02G10B  C2002 04 08.90855 12 08 09.66 -13 18 26.7                      246
     K02G10B  C2002 04 08.93091 12 08 09.36 -13 18 26.3                      557
     K02G10B  C2002 04 08.94910 12 08 09.19 -13 18 24.9                      246
     K02G10B  C2002 04 08.95329 12 08 09.14 -13 18 23.9                      246
     K02G10B  C2002 04 08.97625 12 08 08.87 -13 18 22.4          19.4 V      493
     K02G10B  C2002 04 08.98209 12 08 08.80 -13 18 22.0          19.3 V      493
     K02G10B  C2002 04 08.99086 12 08 08.71 -13 18 21.4          19.5 V      493
     K02G10B  C2002 04 08.99390 12 08 08.70 -13 18 21.9          20.2 V      557
     K02G10B FC2002 04 09.43653 12 08 03.99 -13 17 50.8          20.1        422
     K02G10B FC2002 04 09.43821 12 08 03.97 -13 17 50.9          19.9        422
     K02G10B FC2002 04 09.47487 12 08 03.56 -13 17 47.6          19.7        422
     K02G10B FC2002 04 09.47579 12 08 03.48 -13 17 48.2          20.1        422
     K02G10B  C2002 04 10.24943 12 07 55.28 -13 16 57.2          18.7 R      649
     K02G10B  C2002 04 10.29609 12 07 54.79 -13 16 53.0          18.9 R      649
     K02G10B  C2002 04 10.58863 12 07 51.89 -13 16 33.7          19.4 R      428
     K02G10B  C2002 04 14.14276 12 07 14.93 -13 12 29.2          20.5        644
     K02G10B  C2002 04 14.16530 12 07 14.67 -13 12 28.5          19.6        644
     K02G10B  C2002 04 14.18459 12 07 14.49 -13 12 26.9          19.5        644
     K02G10B  C2002 04 15.15510 12 07 04.68 -13 11 19.9          19.4        644
     K02G10B  C2002 04 15.18031 12 07 04.43 -13 11 18.2          19.3        644
     K02G10B  C2002 04 15.20195 12 07 04.20 -13 11 16.7          20.0        644
     K02G10B  C2002 04 15.38348 12 07 02.16 -13 11 02.2          19.2 R      474
     K02G10B  C2002 04 15.40866 12 07 02.34 -13 11 03.8          19.3 R      474
     K02G10B  C2002 04 15.42593 12 07 01.91 -13 11 01.4          19.2 R      474
     K02G10B WC2002 04 15.89300 12 06 57.33 -13 10 28.4                      557
     K02G10B WC2002 04 15.91854 12 06 56.98 -13 10 26.7                      557
     K02G10B  C2002 04 15.94182 12 06 56.65 -13 10 25.4                      557
     K02G10B IC2002 04 16.46266 12 06 51.78 -13 09 50.3                      474
     K02G10B IC2002 04 16.47709 12 06 51.70 -13 09 50.5                      474
     K02G10B  C2002 04 17.21231 12 06 44.20 -13 08 57.3          19.2 R      711
     K02G10B  C2002 04 17.22286 12 06 43.99 -13 08 56.3          20.0        711
     K02G10B  C2002 04 17.23255 12 06 43.89 -13 08 57.5          19.6 R      448
     K02G10B  C2002 04 17.24042 12 06 43.74 -13 08 57.0          19.7 R      448
     K02G10B  C2002 04 17.24680 12 06 43.82 -13 08 54.9          19.0 R      711
     K02G10B  C2002 04 17.24826 12 06 43.68 -13 08 57.5          19.5 R      448
     K02G10B  C2002 04 17.42251 12 06 42.10 -13 08 42.1          19.1 R      474
     K02G10B  C2002 04 17.45771 12 06 41.73 -13 08 39.5          19.3 R      474

Observer details:
246 Klet Observatory-KLENOT.  Observer M. Tichy.  1.06-m KLENOT telescope
    + CCD.
422 Loomberah.  Observer G. J. Garradd.  0.45-m f/5.4 reflector + CCD.
428 Reedy Creek.  Observer J. Broughton.  0.25-m f/6.3 Schmidt-Cassegrain
    + CCD.
448 Desert Moon Observatory.  Observer B. Stevens.  0.30-m f/6.3
    Schmidt-Cassegrain + CCD.
474 Mount John Observatory, Lake Tekapo.  Observers A. C. Gilmore, P. M.
    Kilmartin.  0.6-m f/6.4 reflector + CCD.
493 Calar Alto.  Observers DANEOPS Team (M. Busch, F. Hormuth, R. Kresken).
    Measurers A. Doppler, A. Gnadig.  1.52-m reflector + CCD.
557 Ondrejov.  Observers P. Pravec, P. Kusnirak.  0.65-m f/3.6 reflector + CCD.
644 Palomar Mountain/NEAT.  Observers E. F. Helin, S. Pravdo, K. Lawrence,
    M. Hicks, R. Thicksten.  1.2-m Schmidt + CCD.
649 Powell Observatory, Louisburg.  Observers K. Smalley, R. Fredrick,
    R. Trentman.  0.75-m Newtonian + CCD.
711 McDonald Observatory.  Observer J. G. Ries.  0.76-m reflector + CCD.

Orbital elements:
2002 GB10
Epoch 2002 Mar. 27.0 TT = JDT 2452360.5                 MPC
M  35.38097              (2000.0)            P               Q
n   0.01014495     Peri.  150.18560     -0.36448609     -0.91773121
a  21.1334019      Node   320.58177     +0.79764041     -0.22020809
e   0.4159252      Incl.   14.39500     +0.48054101     -0.33057197
P  97.2            H    7.4           G   0.15
From 37 observations 2002 Apr. 8-17.

Ephemeris:
2002 GB10                a,e,i = 21.13, 0.42, 14                 q = 12.343
Date    TT    R. A. (2000) Decl.     Delta      r     Elong.  Phase     V
2002 04 16    12 06.94   -13 10.4   15.174   16.109   158.0     1.3    19.5
2002 04 26    12 05.38   -12 58.8   15.255   16.126   148.9     1.8    19.6
2002 05 06    12 04.07   -12 47.7   15.362   16.142   139.5     2.3    19.6
2002 05 16    12 03.06   -12 37.4   15.492   16.159   129.9     2.8    19.7
2002 05 26    12 02.40   -12 28.6   15.640   16.176   120.4     3.1    19.7
2002 06 05    12 02.10   -12 21.5   15.803   16.193   110.9     3.4    19.8
2002 06 15    12 02.17   -12 16.4   15.976   16.210   101.5     3.5    19.8
2002 06 25    12 02.63   -12 13.7   16.155   16.226    92.2     3.6    19.8
2002 07 05    12 03.45   -12 13.5   16.335   16.243    83.0     3.6    19.9
2002 07 15    12 04.61   -12 15.7   16.512   16.260    74.0     3.4    19.9
2002 07 25    12 06.10   -12 20.5   16.681   16.277    65.0     3.2    19.9
2002 08 04    12 07.87   -12 27.6   16.838   16.294    56.1     3.0    19.9
2002 08 14    12 09.90   -12 37.1   16.981   16.311    47.2     2.6    19.9
2002 08 24    12 12.14   -12 48.8   17.106   16.327    38.5     2.2    19.9
2002 09 03    12 14.55   -13 02.4   17.210   16.344    30.0     1.8    19.9

Brian G. Marsden             (C) Copyright 2002 MPC           M.P.E.C. 2002-H11

Read MPEC 2002-H10 Read MPEC 2002-H12


Our Web policy. Index to the CBAT/MPC/ICQ pages.


Valid HTML 4.01!